[[{"header":{"parameterUnit":"m.s-1","parameterCategory":1,"la1":30.2991,"la2":30.254,"lo1":-89.0895,"lo2":-89.0444,"dx":0.0017,"dy":0.0017,"nx":28,"ny":28,"refTime":"2022-11-28T15:00:00:Z","depth":0,"parameterNumber":2,"parameterNumberName":"U-component_of_WINDS"},"data":[0,0,0,0,0,0,0,0,0,0,0,0,0,0,0,0,0,0,0,0,0,0,0,0,0,0,0,0,0,0,0,0,0,0,0,0,0,0,0,0,0,0,0,0,0,0,0,0,0,0,0,0,0,0,0,0,0,0,-3.5674,-3.5675,0,-3.5745,-3.5746,-3.5747,-3.5669,-3.5666,-3.5663,-3.566,-3.5735,-3.574,-3.5744,0,0,0,0,0,0,0,0,0,0,0,0,0,-3.5472,-3.5476,-3.5674,-3.5675,-3.5676,-3.5745,-3.5746,-3.5747,-3.5669,-3.5666,-3.5662,-3.5659,-3.5734,-3.5739,-3.5745,0,0,0,0,0,0,0,0,0,0,0,0,0,-3.5553,-3.5477,-3.5674,-3.5645,-3.5643,-3.5745,-3.5746,-3.5748,-3.567,-3.5666,-3.5661,-3.5657,-3.5732,-3.5739,-3.5746,-3.588,0,0,-3.5768,-3.5771,0,0,0,0,0,0,0,0,-3.5549,-3.5561,-3.5649,-3.5647,-3.5645,-3.5694,-3.5702,-3.5792,-3.5671,-3.566,-3.566,-3.5655,-3.5725,-3.5732,-3.5756,-3.5883,-3.5886,-3.5768,-3.5773,-3.5776,-3.5778,0,0,0,0,0,0,0,-3.5543,-3.5557,-3.5702,-3.565,-3.5648,-3.5629,-3.5636,-3.5719,-3.5717,-3.5661,-3.5655,-3.5665,-3.5723,-3.5749,-3.5757,-3.5887,-3.5768,-3.5774,-3.5779,-3.5782,-3.6128,-3.6133,0,0,0,0,0,0,-3.554,-3.5553,-3.57,-3.5704,-3.5585,-3.5637,-3.5644,-3.5683,-3.5716,-3.5716,-3.5668,-3.5661,-3.5739,-3.5749,-3.5759,-3.5918,-3.5776,-3.5782,-3.5786,-3.6123,-3.6129,-3.6135,0,0,0,0,0,0,-3.5536,-3.5554,-3.5697,-3.5627,-3.5644,-3.5645,-3.5689,-3.5687,-3.5712,-3.5722,-3.5721,-3.5695,-3.5736,-3.5749,-3.585,-3.5919,-3.5786,-3.5792,-3.6117,-3.6125,-3.6132,-3.6236,0,0,0,0,0,0,-3.5531,-3.5553,-3.5604,-3.5629,-3.5648,-3.5786,-3.5693,-3.5691,-3.5724,-3.5715,-3.5746,-3.5747,-3.5733,-3.584,-3.5857,-3.5927,-3.5798,-3.6111,-3.6121,-3.613,-3.6226,-3.6246,-3.6263,0,0,0,0,0,-3.5524,-3.5631,-3.5607,-3.5625,-3.5711,-3.5791,-3.5801,-3.5783,-3.573,-3.5781,-3.5787,-3.5746,-3.5909,-3.5851,-3.587,-3.5942,-3.6107,-3.6118,-3.6129,-3.6218,-3.6242,-3.6262,0,0,0,0,0,0,-3.5614,-3.5633,-3.5607,-3.5725,-3.5757,-3.5777,-3.5841,-3.5809,-3.5857,-3.5846,-3.5822,-3.5829,-3.5937,-3.595,-3.5884,-3.6074,-3.5999,-3.6015,-3.6061,-3.6084,-3.6102,-3.6096,-3.5804,0,0,0,0,0,-3.5647,-3.571,-3.5724,-3.5826,-3.5844,-3.584,-3.5874,-3.5857,-3.5889,-3.5902,-3.5916,-3.5949,-3.6007,-3.6046,-3.6101,-3.6229,-3.6234,-3.6288,-3.6306,-3.6321,-3.6334,-3.6402,-3.6426,-3.6171,-3.6171,-3.617,0,0,-3.5717,-3.5736,-3.5777,-3.5845,-3.5867,-3.5933,-3.5852,-3.5924,-3.5973,-3.5913,-3.6009,-3.6021,-3.6056,-3.6171,-3.6222,-3.6185,-3.6406,-3.6335,-3.6347,-3.6352,-3.6416,-3.644,-3.6462,-3.6178,-3.6177,-3.6176,0,0,-3.5878,-3.5898,-3.5985,-3.601,-3.6045,-3.6042,-3.6063,-3.6089,-3.6094,-3.619,-3.6146,-3.6204,-3.6306,-3.6333,-3.636,-3.6532,-3.6495,-3.655,-3.6645,-3.6712,-3.6732,-3.675,-3.681,-3.6833,-3.6564,-3.6564,-3.6564,0,-3.596,-3.6056,-3.6035,-3.6111,-3.6142,-3.6091,-3.618,-3.6205,-3.6256,-3.628,-3.6237,-3.6364,-3.6384,-3.6504,-3.6546,-3.657,-3.6594,-3.6546,-3.6731,-3.6748,-3.6765,-3.6822,-3.6845,-3.657,-3.657,-3.6569,-3.6568,0,-3.6156,-3.6224,-3.629,-3.6341,-3.638,-3.6462,-3.6453,-3.6496,-3.6476,-3.6477,-3.6576,-3.6599,-3.6657,-3.6684,-3.6666,-3.6802,-3.6778,-3.6734,-3.6659,-3.6796,-3.6849,-3.6871,-3.658,-3.6577,-3.6575,-3.6574,0,0,-3.6373,-3.6411,-3.6436,-3.6458,-3.6494,-3.6546,-3.6626,-3.6683,-3.6719,-3.6757,-3.6824,-3.6911,-3.6871,-3.6902,-3.6886,-3.6945,-3.7079,-3.6894,-3.6894,-3.6926,-3.723,-3.7262,-3.7288,-3.7056,-3.706,-3.7063,-3.7227,0,-3.6534,-3.6672,-3.6655,-3.6787,-3.685,-3.6803,-3.6873,-3.6902,-3.6907,-3.696,-3.6965,-3.7027,-3.6969,-3.6988,-3.7044,-3.7051,-3.714,-3.7039,-3.7117,-3.712,-3.7109,-3.7316,-3.735,-3.7504,-3.7248,-3.7252,-3.7254,0,-3.6739,-3.6783,-3.6922,-3.6948,-3.6973,-3.7036,-3.7087,-3.7139,-3.7172,-3.7171,-3.7206,-3.718,-3.7261,-3.7186,-3.7297,-3.7229,-3.726,-3.7269,-3.7274,-3.728,-3.7195,-3.7327,-3.7552,-3.7575,-3.7287,-3.7284,-3.7282,0,-3.6883,-3.6978,-3.7072,-3.7093,-3.7126,-3.7172,-3.7188,-3.7216,-3.7251,-3.7296,-3.7318,-3.7372,-3.7402,-3.7444,-3.7434,-3.738,-3.7548,-3.7471,-3.7549,-3.7549,-3.7585,-3.7583,-3.7818,-3.7608,-3.7608,-3.7607,-3.7607,0,-3.7063,-3.7149,-3.7137,-3.7196,-3.7291,-3.7272,-3.7367,-3.7377,-3.7404,-3.7463,-3.7427,-3.7484,-3.7467,-3.7524,-3.7517,-3.761,-3.7624,-3.7625,-3.7622,-3.7628,-3.7627,-3.7647,-3.7635,-3.7613,-3.7612,-3.7611,-3.761,0,-3.7239,-3.7235,-3.7335,-3.7358,-3.7366,-3.7435,-3.7455,-3.751,-3.7512,-3.7588,-3.7605,-3.7608,-3.7672,-3.7667,-3.774,-3.7735,-3.785,-3.7835,-3.7838,-3.7834,-3.7912,-3.7905,-3.8167,-3.82,-3.797,-3.7972,-3.7974,0,-3.7353,-3.7419,-3.7449,-3.7486,-3.7505,-3.7566,-3.7601,-3.7585,-3.7624,-3.7667,-3.7717,-3.7778,-3.7826,-3.7932,-3.7941,-3.7997,-3.7982,-3.807,-3.799,-3.7994,-3.7982,-3.7978,-3.7984,-3.8085,-3.8088,-3.809,-3.8092,0,-3.7557,-3.7552,-3.7604,-3.7656,-3.7699,-3.774,-3.7776,-3.7809,-3.7797,-3.7842,-3.7908,-3.7945,-3.802,-3.8081,-3.8134,-3.8151,-3.812,-3.8117,-3.8138,-3.8144,-3.8143,-3.8143,-3.788,-3.8111,-3.8109,-3.8108,-3.8107,-3.8106,-3.7705,-3.7761,-3.779,-3.785,-3.7876,-3.7911,-3.7964,-3.7972,-3.8026,-3.8085,-3.8073,-3.8146,-3.8179,-3.8246,-3.8269,-3.8327,-3.8295,-3.8325,-3.8333,-3.834,-3.8348,-3.8135,-3.8337,-3.8336,-3.8336,-3.8335,-3.8335,0,-3.7905,-3.7922,-3.7978,-3.803,-3.8077,-3.8043,-3.8082,-3.8124,-3.8189,-3.8222,-3.827,-3.8345,-3.8405,-3.8419,-3.8476,-3.8519,-3.8506,-3.8535,-3.8531,-3.8535,-3.8374,-3.835,-3.8544,-3.8544,-3.8544,-3.8544,-3.8544,-3.8544,-3.8015,-3.8107,-3.8106,-3.8211,-3.8227,-3.8299,-3.8324,-3.8356,-3.8382,-3.8468,-3.8517,-3.8525,-3.855,-3.8609,-3.8663,-3.8665,-3.8687,-3.8721,-3.8718,-3.8568,-3.8546,-3.8526,-3.8503,-3.8727,-3.8727,-3.8874,-3.8875,-3.8876]},{"header":{"parameterUnit":"m.s-1","parameterCategory":1,"la1":30.2991,"la2":30.254,"lo1":-89.0895,"lo2":-89.0444,"dx":0.0017,"dy":0.0017,"nx":28,"ny":28,"refTime":"2022-11-28T15:00:00:Z","depth":0,"parameterNumber":3,"parameterNumberName":"V-component_of_WINDS"},"data":[0,0,0,0,0,0,0,0,0,0,0,0,0,0,0,0,0,0,0,0,0,0,0,0,0,0,0,0,0,0,0,0,0,0,0,0,0,0,0,0,0,0,0,0,0,0,0,0,0,0,0,0,0,0,0,0,0,0,1.5266,1.5266,0,1.5239,1.5239,1.5238,1.5187,1.5186,1.5185,1.5184,1.5157,1.5157,1.5157,0,0,0,0,0,0,0,0,0,0,0,0,0,1.5273,1.5274,1.5266,1.5266,1.5265,1.5239,1.5239,1.5238,1.5187,1.5186,1.5184,1.5183,1.5156,1.5157,1.5157,0,0,0,0,0,0,0,0,0,0,0,0,0,1.5261,1.5274,1.5266,1.5236,1.5233,1.5239,1.5239,1.5238,1.5187,1.5186,1.5184,1.5183,1.5156,1.5157,1.5157,1.5189,0,0,1.5158,1.5158,0,0,0,0,0,0,0,0,1.5262,1.5261,1.5241,1.5238,1.5235,1.5215,1.5231,1.5222,1.5188,1.5205,1.5184,1.5182,1.5177,1.5176,1.5174,1.5188,1.5187,1.5158,1.5158,1.5158,1.5158,0,0,0,0,0,0,0,1.5263,1.5261,1.5255,1.5241,1.5237,1.5225,1.5221,1.5229,1.52,1.5203,1.5199,1.5197,1.5175,1.5174,1.5173,1.5187,1.5158,1.5158,1.5159,1.5159,1.5227,1.5228,0,0,0,0,0,0,1.5268,1.5263,1.5256,1.5254,1.5245,1.5226,1.5222,1.5223,1.52,1.5195,1.5198,1.5195,1.5174,1.5173,1.5172,1.5208,1.5158,1.5159,1.5159,1.5225,1.5227,1.5229,0,0,0,0,0,0,1.5268,1.5268,1.5257,1.5257,1.5255,1.5227,1.5229,1.5223,1.5221,1.5196,1.519,1.5202,1.5173,1.5171,1.5186,1.5207,1.5159,1.5159,1.5223,1.5226,1.5228,1.5282,0,0,0,0,0,0,1.5268,1.5268,1.528,1.5258,1.5255,1.5271,1.523,1.5224,1.5222,1.5217,1.5198,1.5193,1.5171,1.5185,1.5186,1.5206,1.5159,1.5221,1.5225,1.5227,1.5278,1.5286,1.5293,0,0,0,0,0,1.5269,1.5296,1.5281,1.528,1.5269,1.5273,1.5271,1.5245,1.5224,1.5236,1.522,1.5194,1.5205,1.5187,1.5187,1.5208,1.522,1.5224,1.5227,1.5275,1.5285,1.5293,0,0,0,0,0,0,1.5321,1.5292,1.5275,1.5296,1.5287,1.5264,1.5278,1.5256,1.5253,1.5248,1.5216,1.5213,1.5231,1.5221,1.5202,1.5239,1.5208,1.5212,1.5245,1.5254,1.5261,1.5262,1.516,0,0,0,0,0,1.5334,1.5339,1.5314,1.5335,1.5332,1.5306,1.5306,1.5287,1.5277,1.5273,1.5257,1.5248,1.525,1.5251,1.5251,1.5277,1.5272,1.5292,1.5299,1.5305,1.5308,1.5322,1.5331,1.5241,1.5241,1.5241,0,0,1.5363,1.5348,1.5353,1.5345,1.5336,1.5342,1.5303,1.5311,1.5315,1.5274,1.5286,1.5275,1.5263,1.5284,1.5292,1.5276,1.5332,1.531,1.5315,1.5315,1.5327,1.5335,1.5343,1.5243,1.5243,1.5243,0,0,1.5418,1.5407,1.5423,1.5415,1.5402,1.5385,1.5389,1.5369,1.536,1.5372,1.5342,1.5347,1.535,1.5342,1.5339,1.5393,1.537,1.5394,1.5432,1.5445,1.5452,1.5459,1.5478,1.5485,1.5398,1.5398,1.5398,0,1.5455,1.5462,1.5435,1.5444,1.5442,1.5406,1.5422,1.5416,1.5404,1.5403,1.5385,1.5389,1.5378,1.5397,1.541,1.5408,1.5412,1.5396,1.5454,1.5459,1.5465,1.5483,1.549,1.5401,1.5401,1.54,1.54,0,1.5509,1.5515,1.5529,1.5519,1.5518,1.5531,1.5506,1.5509,1.549,1.5475,1.5489,1.5475,1.5471,1.5474,1.5456,1.5491,1.5481,1.5459,1.5428,1.5477,1.5493,1.55,1.5405,1.5404,1.5403,1.5403,0,0,1.5594,1.5569,1.5575,1.557,1.5553,1.5557,1.5569,1.5566,1.5569,1.5562,1.5572,1.5576,1.5555,1.5552,1.5533,1.5545,1.5589,1.5521,1.552,1.5534,1.5627,1.5644,1.5652,1.5574,1.5575,1.5576,1.5628,0,1.5646,1.5664,1.564,1.5664,1.567,1.5636,1.5646,1.5638,1.5624,1.5627,1.5612,1.5616,1.5588,1.5586,1.5597,1.5582,1.5607,1.5577,1.5583,1.5583,1.5586,1.5661,1.5678,1.5728,1.5634,1.5635,1.5636,0,1.5707,1.5704,1.5728,1.5711,1.5712,1.5722,1.5718,1.5721,1.5711,1.57,1.5697,1.5675,1.5686,1.5656,1.5671,1.5651,1.5652,1.5645,1.5646,1.5646,1.5612,1.5662,1.5743,1.5751,1.5646,1.5645,1.5645,0,1.5768,1.5769,1.5784,1.5781,1.5761,1.5769,1.5761,1.5749,1.5749,1.5745,1.5745,1.5743,1.5742,1.5741,1.5719,1.5699,1.5737,1.5705,1.5729,1.573,1.5738,1.5738,1.582,1.5739,1.5739,1.5739,1.5739,0,1.5827,1.5843,1.5811,1.582,1.5838,1.581,1.5829,1.5818,1.5808,1.5815,1.5786,1.5793,1.5763,1.5767,1.575,1.5766,1.5765,1.5757,1.5753,1.576,1.5761,1.576,1.5755,1.5741,1.574,1.574,1.574,0,1.5897,1.5875,1.589,1.587,1.5866,1.588,1.5863,1.5871,1.5856,1.5865,1.5866,1.5843,1.5846,1.5824,1.5824,1.5812,1.5836,1.5825,1.584,1.5836,1.5861,1.5859,1.5946,1.5956,1.5869,1.587,1.587,0,1.5936,1.5948,1.593,1.5932,1.5926,1.593,1.593,1.5904,1.5905,1.5896,1.5905,1.5906,1.5906,1.5913,1.5896,1.5896,1.5885,1.5916,1.5885,1.5892,1.5886,1.5885,1.5887,1.5922,1.5923,1.5924,1.5925,0,1.6008,1.5997,1.5998,1.5995,1.5996,1.5993,1.5988,1.5992,1.5964,1.5967,1.597,1.597,1.597,1.5972,1.5968,1.5961,1.5938,1.5935,1.594,1.5947,1.5955,1.5952,1.5857,1.5933,1.5932,1.5931,1.5931,1.593,1.6063,1.6072,1.6061,1.6064,1.6057,1.6054,1.606,1.6047,1.6049,1.6047,1.6032,1.6038,1.6028,1.6022,1.6016,1.6021,1.6007,1.6015,1.6017,1.6019,1.6024,1.5955,1.6021,1.602,1.602,1.602,1.602,0,1.6133,1.6125,1.6127,1.6121,1.6123,1.6103,1.6096,1.6099,1.6105,1.6098,1.6099,1.6103,1.6105,1.6089,1.6089,1.6096,1.6086,1.6097,1.6096,1.6095,1.6036,1.6032,1.6105,1.6105,1.6105,1.6105,1.6105,1.6105,1.617,1.6185,1.6173,1.6185,1.6176,1.6182,1.618,1.6177,1.6171,1.6178,1.6179,1.6169,1.6158,1.6157,1.6159,1.6154,1.6155,1.617,1.6162,1.6107,1.6099,1.6091,1.6086,1.617,1.617,1.622,1.622,1.622]}]]